Weather History for San Sebastian, Spain

Change the Weather History Date:

Sunday, October 7, 2012

  Actual Average Record
Temperature  
Mean Temperature 70 °F -  
Max Temperature 75 °F 66 °F 78 °F (2001)
Min Temperature 64 °F 53 °F 46 °F (1996)
Cooling Degree Days 4    
Growing Degree Days 20 (Base 50)    
Moisture  
Dew Point 61 °F    
Average Humidity 74    
Maximum Humidity 88    
Minimum Humidity 57    
Precipitation  
Precipitation 0.00 in - - ()
Sea Level Pressure  
Sea Level Pressure 30.15 in    
Wind  
Wind Speed 1 mph ()    
Max Wind Speed 4 mph    
Max Gust Speed -    
Visibility 6.2 miles    
Events      
Averages and records for this station are not official NWS values.
T = Trace of Precipitation, MM = Missing Value Source: Averaged Metar Reports

Daily Weather History Graph

Daily Weather History Graph

Search for Another Location

Airport:

Trip Planner

Search our weather history database for the weather conditions in past years. The results will help you decide how hot, cold, wet, or windy it might be!

Date:

Astronomy

Oct. 07, 2012 Rise Set
Actual Time 8:11 AM CEST 7:37 PM CEST
Civil Twilight 7:43 AM CEST 8:05 PM CEST
Nautical Twilight 7:10 AM CEST 8:38 PM CEST
Astronomical Twilight 6:36 AM CEST 9:11 PM CEST
Moon No Moon Rise 2:46 PM CEST (10/7)
Length of Visible Light 12h 22m
Length of Day
11h 25m
Waning Gibbous, 58% of the Moon is Illuminated
Oct 7
Waning Gibbous
Oct 8
Last Quarter
Oct 15
New
Oct 22
First Quarter
Oct 29
Full

Hourly Weather History & Observations

Time (CEST) Temp. Dew Point Humidity Pressure Visibility Wind Dir Wind Speed Gust Speed Precip Events Conditions
5:30 AM 66.2 °F 59.0 °F 78% 30.09 in - SSW 3.5 mph - N/A   Clear
6:00 AM 66.2 °F 59.0 °F 78% 30.09 in - Variable 2.3 mph - N/A   Clear
6:30 AM 66.2 °F 59.0 °F 78% 30.09 in - Variable 1.2 mph - N/A   Clear
7:00 AM 66.2 °F 59.0 °F 78% 30.09 in - Variable 1.2 mph - N/A   Clear
7:30 AM 66.2 °F 59.0 °F 78% 30.09 in 6.2 mi Variable 1.2 mph - N/A   Overcast
8:00 AM 66.2 °F 59.0 °F 78% 30.09 in 6.2 mi SW 3.5 mph - N/A   Mostly Cloudy
8:30 AM 64.4 °F 60.8 °F 88% 30.09 in 6.2 mi Calm Calm - N/A   Mostly Cloudy
9:00 AM 64.4 °F 60.8 °F 88% 30.09 in 6.2 mi Variable 2.3 mph - N/A   Mostly Cloudy
9:30 AM 66.2 °F 60.8 °F 83% 30.12 in 6.2 mi Variable 1.2 mph - N/A   Mostly Cloudy
10:00 AM 68.0 °F 60.8 °F 78% 30.12 in 6.2 mi Variable 1.2 mph - N/A   Mostly Cloudy
10:30 AM 68.0 °F 60.8 °F 78% 30.12 in 6.2 mi Variable 2.3 mph - N/A   Mostly Cloudy
11:00 AM 69.8 °F 60.8 °F 73% 30.15 in 6.2 mi Calm Calm - N/A   Overcast
11:30 AM 69.8 °F 60.8 °F 73% 30.15 in 6.2 mi Calm Calm - N/A   Mostly Cloudy
12:00 PM 71.6 °F 60.8 °F 69% 30.15 in 6.2 mi Calm Calm - N/A   Mostly Cloudy
12:30 PM 71.6 °F 62.6 °F 73% 30.18 in 6.2 mi Calm Calm - N/A   Mostly Cloudy
1:00 PM 71.6 °F 60.8 °F 69% 30.18 in 6.2 mi NE 3.5 mph - N/A   Mostly Cloudy
1:30 PM 73.4 °F 59.0 °F 61% 30.18 in 6.2 mi Variable 1.2 mph - N/A   Mostly Cloudy
2:00 PM 73.4 °F 60.8 °F 65% 30.18 in 6.2 mi Calm Calm - N/A   Overcast
2:30 PM 73.4 °F 57.2 °F 57% 30.18 in 6.2 mi Calm Calm - N/A   Overcast
3:00 PM 73.4 °F 59.0 °F 61% 30.18 in 6.2 mi Calm Calm - N/A   Overcast
3:30 PM 75.2 °F 59.0 °F 57% 30.18 in 6.2 mi Calm Calm - N/A   Overcast
4:00 PM 73.4 °F 60.8 °F 65% 30.18 in 6.2 mi Variable 2.3 mph - N/A   Overcast
4:30 PM 73.4 °F 60.8 °F 65% 30.18 in 6.2 mi Variable 1.2 mph - N/A   Overcast
5:00 PM 75.2 °F 62.6 °F 65% 30.18 in 6.2 mi Calm Calm - N/A   Overcast
5:30 PM 75.2 °F 64.4 °F 69% 30.15 in 6.2 mi Variable 1.2 mph - N/A   Mostly Cloudy
6:00 PM 75.2 °F 64.4 °F 69% 30.15 in 6.2 mi Variable 2.3 mph - N/A   Mostly Cloudy
6:30 PM 73.4 °F 64.4 °F 73% 30.18 in 6.2 mi Variable 1.2 mph - N/A   Mostly Cloudy
7:00 PM 73.4 °F 64.4 °F 73% 30.15 in 6.2 mi Variable 1.2 mph - N/A   Mostly Cloudy
7:30 PM 73.4 °F 64.4 °F 73% 30.15 in 6.2 mi Variable 1.2 mph - N/A   Mostly Cloudy
8:00 PM 69.8 °F 64.4 °F 83% 30.18 in 6.2 mi North 3.5 mph - N/A   Partly Cloudy
8:30 PM 68.0 °F 64.4 °F 88% 30.18 in 6.2 mi NNE 3.5 mph - N/A   Partly Cloudy
9:00 PM 68.0 °F 64.4 °F 88% 30.18 in 6.2 mi Variable 1.2 mph - N/A   Partly Cloudy
9:30 PM 68.0 °F 64.4 °F 88% 30.18 in 6.2 mi Calm Calm - N/A   Partly Cloudy